TimeEDT,TemperatureF,Dew PointF,Humidity,Sea Level PressureIn,VisibilityMPH,Wind Direction,Wind SpeedMPH,Gust SpeedMPH,PrecipitationIn,Events,Conditions,WindDirDegrees,DateUTC
12:53 AM,39.0,15.1,38,30.30,10.0,Calm,Calm,-,N/A,,Clear,0,2013-04-03 04:53:00
1:53 AM,35.1,17.1,48,30.30,10.0,Calm,Calm,-,N/A,,Clear,0,2013-04-03 05:53:00
2:53 AM,35.1,17.1,48,30.30,10.0,Calm,Calm,-,N/A,,Clear,0,2013-04-03 06:53:00
3:53 AM,34.0,19.9,56,30.31,10.0,Calm,Calm,-,N/A,,Clear,0,2013-04-03 07:53:00
4:53 AM,32.0,19.9,61,30.31,10.0,Calm,Calm,-,N/A,,Clear,0,2013-04-03 08:53:00
5:53 AM,30.0,21.0,69,30.30,10.0,Calm,Calm,-,N/A,,Clear,0,2013-04-03 09:53:00
6:53 AM,28.9,21.0,72,30.31,10.0,Calm,Calm,-,N/A,,Clear,0,2013-04-03 10:53:00
7:53 AM,33.1,17.1,52,30.35,10.0,Calm,Calm,-,N/A,,Clear,0,2013-04-03 11:53:00
8:53 AM,37.0,12.9,37,30.40,10.0,ENE,4.6,-,N/A,,Clear,70,2013-04-03 12:53:00
9:53 AM,39.9,10.9,31,30.41,10.0,East,10.4,-,N/A,,Clear,90,2013-04-03 13:53:00
10:53 AM,43.0,12.0,28,30.42,10.0,ENE,8.1,-,N/A,,Clear,60,2013-04-03 14:53:00
11:53 AM,45.0,14.0,29,30.41,10.0,Variable,5.8,-,N/A,,Clear,0,2013-04-03 15:53:00
12:53 PM,48.0,17.1,29,30.39,10.0,ENE,9.2,-,N/A,,Clear,70,2013-04-03 16:53:00
1:53 PM,48.9,16.0,27,30.37,10.0,NNE,9.2,-,N/A,,Clear,30,2013-04-03 17:53:00
2:53 PM,50.0,16.0,26,30.36,10.0,NE,6.9,17.3,N/A,,Clear,40,2013-04-03 18:53:00
3:53 PM,50.0,16.0,26,30.36,10.0,ENE,8.1,17.3,N/A,,Clear,70,2013-04-03 19:53:00
4:53 PM,52.0,14.0,22,30.36,10.0,East,15.0,19.6,N/A,,Clear,80,2013-04-03 20:53:00
5:53 PM,50.0,12.9,23,30.33,10.0,ENE,11.5,-,N/A,,Clear,70,2013-04-03 21:53:00
6:53 PM,50.0,12.0,22,30.31,10.0,ENE,9.2,-,N/A,,Clear,60,2013-04-03 22:53:00
7:53 PM,48.0,12.0,24,30.30,10.0,ENE,8.1,-,N/A,,Clear,60,2013-04-03 23:53:00
8:53 PM,46.9,12.0,24,30.30,10.0,NE,4.6,-,N/A,,Clear,50,2013-04-04 00:53:00
9:53 PM,46.0,12.9,26,30.31,10.0,ENE,6.9,-,N/A,,Clear,60,2013-04-04 01:53:00
10:53 PM,44.1,14.0,30,30.33,10.0,East,6.9,-,N/A,,Clear,80,2013-04-04 02:53:00
11:53 PM,43.0,14.0,31,30.30,10.0,ENE,8.1,-,N/A,,Clear,70,2013-04-04 03:53:00